Change the Weather History Date:

Wednesday, January 23, 2013

  Actual Average Record
Temperature  
Mean Temperature 19 °F -  
Max Temperature 21 °F 28 °F 33 °F (1997)
Min Temperature 17 °F 19 °F 10 °F (2005)
Degree Days  
Heating Degree Days 46    
Moisture  
Dew Point 13 °F    
Average Humidity 76    
Maximum Humidity 86    
Minimum Humidity 59    
Precipitation  
Precipitation 0.00 in 0.03 in - ()
Sea Level Pressure  
Sea Level Pressure 29.51 in    
Wind  
Wind Speed 7 mph ()    
Max Wind Speed 13 mph    
Max Gust Speed -    
Visibility 8.3 miles    
Events      
Averages and records for this station are not official NWS values.
T = Trace of Precipitation, MM = Missing Value Source: Averaged Metar Reports

Daily Weather History Graph

Daily Weather History Graph

Search for Another Location

Airport or City:

Trip Planner

Search our weather history database for the weather conditions in past years. The results will help you decide how hot, cold, wet, or windy it might be!

Date:

Astronomy

Jan. 23, 2013 Rise Set
Actual Time 7:48 AM CET 5:07 PM CET
Civil Twilight 7:15 AM CET 5:40 PM CET
Nautical Twilight 6:38 AM CET 6:17 PM CET
Astronomical Twilight 6:03 AM CET 6:52 PM CET
Moon 2:01 PM CET (1/23) 4:48 AM CET (1/23)
Length of Visible Light 10h 25m
Length of Day
9h 19m
Waxing Gibbous, 87% of the Moon is Illuminated
Jan 23
Waxing Gibbous
Jan 27
Full
Feb 3
Last Quarter
Feb 10
New
Feb 17
First Quarter

Hourly Weather History & Observations

Time (CET) Temp. Windchill Dew Point Humidity Pressure Visibility Wind Dir Wind Speed Gust Speed Precip Events Conditions
12:55 AM 17.6 °F 5.7 °F 14.0 °F 86% 29.47 in - South 10.4 mph - N/A   Clear
1:00 AM 18 °F - 13 °F 74%  in 19 mi South 10.4 mph - -  
1:55 AM 17.6 °F 5.7 °F 14.0 °F 86% 29.47 in - SSW 10.4 mph - N/A   Clear
2:55 AM 17.6 °F 6.4 °F 14.0 °F 86% 29.47 in - South 9.2 mph - N/A   Clear
3:55 AM 17.6 °F 9.3 °F 12.2 °F 79% 29.50 in - SSW 5.8 mph - N/A   Clear
4:00 AM 18 °F - 13 °F 71%  in 19 mi SSW 5.8 mph - -  
4:55 AM 17.6 °F 9.3 °F 12.2 °F 79% 29.50 in - SSW 5.8 mph - N/A   Clear
5:55 AM 17.6 °F 10.7 °F 12.2 °F 79% 29.50 in - East 4.6 mph - N/A   Clear
6:55 AM 17.6 °F 9.3 °F 12.2 °F 79% 29.50 in - SSE 5.8 mph - N/A   Clear
7:00 AM 18 °F - 13 °F 70%  in 22 mi SSE 5.8 mph - -  
7:55 AM 17.6 °F 10.7 °F 12.2 °F 79% 29.50 in - SSE 4.6 mph - N/A   Clear
8:55 AM 17.6 °F 4.3 °F 12.2 °F 79% 29.50 in 6.2 mi South 12.7 mph - N/A   Partly Cloudy
9:55 AM 17.6 °F 9.3 °F 14.0 °F 86% 29.53 in 6.2 mi South 5.8 mph - N/A   Partly Cloudy
10:00 AM 18 °F - 13 °F 75%  in 31 mi South 5.8 mph - -   Scattered Clouds
10:55 AM 17.6 °F 6.4 °F 12.2 °F 79% 29.53 in 6.2 mi SSW 9.2 mph - N/A   Partly Cloudy
11:55 AM 17.6 °F 7.3 °F 12.2 °F 79% 29.53 in 6.2 mi SSW 8.1 mph - N/A   Partly Cloudy
12:55 PM 19.4 °F 8.6 °F 12.2 °F 74% 29.53 in 6.2 mi SW 9.2 mph - N/A   Partly Cloudy
1:00 PM 19 °F - 12 °F 63%  in 31 mi SW 9.2 mph - -   Scattered Clouds
1:55 PM 19.4 °F 9.5 °F 12.2 °F 74% 29.53 in 6.2 mi SSW 8.1 mph - N/A   Scattered Clouds
2:55 PM 19.4 °F 7.2 °F 12.2 °F 74% 29.53 in 6.2 mi SSW 11.5 mph - N/A   Scattered Clouds
3:55 PM 19.4 °F 8.6 °F 10.4 °F 68% 29.53 in 6.2 mi SSW 9.2 mph - N/A   Scattered Clouds
4:00 PM 19 °F - 11 °F 59%  in 31 mi SSW 9.2 mph - -   Partly Cloudy
4:55 PM 19.4 °F 11.5 °F 12.2 °F 74% 29.53 in 6.2 mi SSE 5.8 mph - N/A   Partly Cloudy
5:55 PM 19.4 °F 11.5 °F 12.2 °F 74% 29.53 in 6.2 mi South 5.8 mph - N/A   Partly Cloudy
6:55 PM 19.4 °F 10.4 °F 14.0 °F 80% 29.53 in - SE 6.9 mph - N/A   Clear
7:00 PM 19 °F - 13 °F 69%  in 25 mi SE 6.9 mph - -   Clear
7:55 PM 19.4 °F 11.5 °F 14.0 °F 80% 29.53 in - SE 5.8 mph - N/A   Clear
8:55 PM 19.4 °F 11.5 °F 14.0 °F 80% 29.53 in - SSE 5.8 mph - N/A   Clear
9:55 PM 19.4 °F 12.8 °F 14.0 °F 80% 29.53 in - ESE 4.6 mph - N/A   Clear
10:00 PM 20 °F - 13 °F 64%  in 25 mi ESE 4.6 mph - -   Clear
10:55 PM 21.2 °F - 14.0 °F 74% 29.50 in - North 2.3 mph - N/A   Clear
11:55 PM 21.2 °F 13.6 °F 14.0 °F 74% 29.50 in - NE 5.8 mph - N/A   Clear